Date,TemperatureHighF,TemperatureAvgF,TemperatureLowF,DewpointHighF,DewpointAvgF,DewpointLowF,HumidityHigh,HumidityAvg,HumidityLow,PressureMaxIn,PressureMinIn,WindSpeedMaxMPH,WindSpeedAvgMPH,GustSpeedMaxMPH,PrecipitationSumIn
2012-1-15,24,20,18,16,14,13,83,76,68,30.46,30.32,7,4,0,0.00
2012-1-16,43,43,42,42,41,40,95,95,94,29.86,29.85,18,7,20,0.00
2012-1-17,52,37,26,50,34,21,99,88,79,30.09,29.45,23,15,42,0.55
2012-1-18,27,24,22,22,17,14,88,75,66,30.31,30.09,22,7,23,0.00
2012-1-19,28,20,7,26,15,2,94,82,70,30.23,29.85,18,9,29,0.00
2012-1-20,15,10,0,13,6,-2,92,85,70,30.35,30.11,14,3,15,0.00
2012-1-21,22,16,10,14,11,8,92,82,67,30.36,30.09,14,4,14,0.00
2012-1-22,33,21,13,32,19,11,97,93,88,30.30,29.98,16,4,21,0.01
2012-1-23,48,42,33,47,41,28,100,95,82,29.81,29.50,40,10,40,0.25
2012-1-25,30,30,29,28,27,26,95,92,86,30.28,30.18,13,2,13,0.00
2012-1-26,33,32,29,33,31,28,99,97,95,30.20,29.57,14,3,14,0.18
2012-1-27,40,35,31,34,31,27,98,86,65,30.02,29.57,30,7,30,0.01
2012-1-28,33,31,28,32,26,18,98,82,57,30.16,29.83,36,10,39,0.02
2012-1-29,33,28,19,29,22,15,95,79,71,30.29,29.97,31,8,35,0.00
2012-1-30,44,30,16,35,25,13,93,81,68,30.30,29.96,20,5,21,0.00
2012-1-31,56,49,43,48,40,34,88,72,59,30.00,29.87,17,7,28,0.00
2012-2-1,52,42,37,50,39,33,95,89,84,30.16,29.87,14,5,18,0.06
2012-2-2,44,36,28,36,32,27,97,84,70,30.43,30.14,11,3,13,0.00
2012-2-3,43,33,24,38,31,24,99,93,80,30.54,30.42,10,2,13,0.00
2012-2-4,38,34,29,34,31,27,97,90,80,30.42,30.20,8,1,12,0.12
2012-2-5,45,34,25,33,29,24,97,83,56,30.30,30.20,9,2,11,0.00
2012-2-6,42,32,27,35,29,25,95,88,72,30.26,30.13,18,6,24,0.01
2012-2-7,36,32,29,32,29,25,96,89,73,30.38,30.20,12,4,15,0.00
2012-2-8,36,28,24,26,21,16,87,76,49,30.38,30.29,12,5,15,0.01
2012-2-9,34,27,22,24,21,19,90,81,65,30.32,30.18,20,6,22,0.00
2012-2-10,32,28,16,31,25,14,97,88,79,30.18,29.87,23,5,30,0.00
2012-2-11,21,15,8,16,9,2,92,78,61,30.34,29.96,24,13,30,0.00
2012-2-12,30,23,16,21,17,12,85,76,63,30.30,30.22,22,9,26,0.00
2012-2-13,33,24,18,19,15,12,77,68,44,30.24,30.08,13,5,17,0.00
2012-2-14,33,30,27,30,28,24,96,92,83,30.11,29.91,11,4,13,0.05
2012-2-15,36,33,32,31,29,28,89,86,83,30.24,30.11,14,3,18,0.02
2012-2-16,42,38,28,41,36,27,99,92,79,30.15,29.97,17,4,22,0.04
2012-2-17,44,36,29,30,28,25,94,74,51,30.21,30.03,13,5,17,0.00
2012-2-18,39,34,24,32,26,19,90,74,54,30.24,30.01,21,7,25,0.00
2012-2-19,33,27,21,22,20,18,86,76,61,30.26,30.16,12,4,17,0.00
2012-2-20,37,28,18,26,22,16,94,80,62,30.42,30.15,13,3,17,0.00
2012-2-21,43,36,26,40,33,24,97,89,80,30.16,29.69,19,7,30,0.11
2012-2-22,40,36,32,37,34,31,98,92,83,29.75,29.46,11,5,18,0.12
2012-2-23,39,35,31,37,33,30,99,95,88,29.68,29.48,10,3,14,0.12
2012-2-24,40,34,29,38,32,27,99,93,80,29.85,29.33,29,10,35,0.19
2012-2-25,31,27,24,27,23,20,95,82,72,30.41,29.85,25,12,30,0.00
2012-2-26,43,30,19,27,23,17,95,76,52,30.46,30.16,15,4,23,0.00
2012-2-27,42,36,29,30,26,23,80,67,50,30.53,30.14,29,9,35,0.00
2012-2-28,43,32,21,32,26,19,95,79,57,30.55,30.10,16,3,17,0.00
2012-2-29,52,37,34,50,36,30,99,96,82,30.09,29.56,16,5,20,0.55
2012-3-3,33,31,30,26,25,24,86,79,72,29.81,29.73,22,10,28,0.00
2012-3-4,33,30,27,29,27,24,93,88,80,29.93,29.80,16,6,18,0.00
2012-3-5,30,27,23,25,20,15,92,76,60,30.45,29.93,19,7,26,0.00
2012-3-6,62,43,29,40,31,22,82,65,42,30.44,30.09,20,7,26,0.00
2012-3-7,66,56,45,49,39,31,66,54,43,30.18,29.94,31,10,40,0.00
2012-3-8,60,46,32,54,40,26,95,79,63,30.20,29.82,30,10,39,0.24
2012-3-9,35,32,25,29,22,15,91,66,46,30.57,30.18,26,12,33,0.00
2012-3-10,51,35,21,30,23,16,89,63,38,30.60,30.34,18,5,22,0.00
2012-3-11,65,49,32,38,31,26,79,53,28,30.39,30.20,13,3,18,0.00
2012-3-12,52,50,46,50,42,37,97,77,56,30.20,30.05,13,3,15,0.18
2012-3-14,78,70,64,56,54,51,72,58,39,30.05,30.01,9,4,17,0.00
2012-3-15,80,69,60,65,60,54,89,73,57,30.05,29.92,20,5,26,0.00
2012-3-16,76,65,55,63,58,54,95,79,59,30.12,29.99,11,3,15,0.00
2012-3-17,76,64,50,60,56,49,98,76,50,30.18,30.04,15,3,18,0.00
2012-3-18,70,62,55,61,57,54,98,86,68,30.12,30.02,9,2,13,0.00
2012-3-19,80,66,53,64,58,52,99,78,50,30.10,29.99,12,2,17,0.01
2012-3-20,83,69,56,62,58,55,98,71,41,30.14,30.02,13,2,16,0.00
2012-3-21,86,71,57,62,57,54,92,65,35,30.17,30.02,10,2,15,0.00
2012-3-22,83,69,54,64,57,52,97,69,41,30.13,30.01,9,1,13,0.00
2012-3-23,67,60,57,62,58,54,98,91,71,30.05,29.83,17,2,17,0.61
2012-3-24,63,57,52,58,55,52,100,94,79,29.85,29.75,10,3,11,0.09
2012-3-25,71,60,54,57,53,48,98,80,53,30.02,29.85,15,6,21,0.00
2012-3-26,56,42,34,48,29,23,80,61,41,30.41,30.03,16,7,21,0.00
2012-3-27,58,43,30,38,28,23,85,59,35,30.41,29.91,17,6,24,0.00
2012-3-28,67,59,46,54,44,37,83,60,34,29.98,29.77,31,12,40,0.00
2012-3-29,51,43,35,38,34,31,86,71,56,30.15,29.98,11,3,13,0.00
2012-3-30,49,40,35,44,36,31,94,85,71,30.09,29.73,21,7,23,0.06
2012-3-31,42,39,37,37,36,34,96,87,79,30.02,29.89,9,3,12,0.00
2012-4-1,65,50,39,55,45,35,92,81,67,29.97,29.67,13,5,16,0.00
2012-4-2,57,46,38,44,37,32,89,73,48,30.05,29.81,18,4,19,0.00
2012-4-3,69,51,38,55,43,31,94,76,59,30.06,29.80,12,4,20,0.34
2012-4-4,62,53,44,49,38,31,94,61,32,29.95,29.83,15,5,18,0.00
2012-4-5,50,43,36,36,32,29,84,65,47,30.13,29.92,16,6,18,0.00
2012-4-6,57,44,30,36,27,24,79,56,30,30.32,30.13,12,4,16,0.00
2012-4-7,63,48,31,38,29,22,93,54,21,30.36,30.13,9,1,13,0.00
2012-4-8,59,53,47,45,34,21,94,53,24,30.16,30.06,34,12,41,0.02
2012-4-9,58,51,43,41,32,22,82,52,25,30.11,29.86,33,10,36,0.00
2012-4-10,43,37,33,31,27,24,84,66,49,30.10,29.90,22,10,26,0.00
2012-4-11,51,42,32,33,29,25,77,62,41,30.25,30.07,16,7,22,0.00
2012-4-12,57,44,28,38,31,26,93,63,37,30.31,30.15,15,4,21,0.00
2012-4-13,62,50,33,38,32,29,91,56,29,30.28,30.11,13,2,18,0.00
2012-4-14,61,54,48,57,47,32,97,78,46,30.12,29.90,14,2,16,0.14
2012-4-15,78,67,56,62,58,55,98,76,50,29.93,29.75,29,6,29,0.01
2012-4-16,70,61,46,61,51,40,93,71,57,30.16,29.64,31,12,44,0.09
2012-4-17,57,47,36,40,37,35,97,70,48,30.38,30.16,12,3,16,0.00
2012-4-18,67,52,36,41,38,34,93,62,33,30.32,30.01,13,3,16,0.00
2012-4-19,76,64,52,52,46,37,77,53,34,30.01,29.83,14,4,20,0.00
2012-4-20,73,59,41,56,48,38,95,69,47,29.86,29.65,24,8,25,0.28
2012-4-21,52,44,39,39,36,29,93,74,50,30.01,29.86,15,7,19,0.00
2012-4-22,52,43,35,33,29,21,84,61,32,30.01,29.94,21,9,25,0.00
2012-4-23,40,37,36,26,25,24,66,62,58,29.98,29.89,13,8,21,0.00
2012-4-24,60,49,38,32,26,20,65,42,27,29.74,29.64,32,12,39,0.00
2012-4-25,62,49,36,49,39,29,93,71,34,29.84,29.74,14,3,21,0.18
2012-4-26,58,51,41,52,44,30,95,79,48,30.10,29.63,23,8,29,0.01
2012-4-27,55,42,29,35,27,23,84,56,31,30.30,30.10,13,3,17,0.00
2012-4-28,45,42,39,40,36,30,91,79,58,30.26,30.15,12,3,17,0.12
2012-4-29,60,47,34,39,31,20,87,58,25,30.35,30.19,13,3,19,0.01
2012-4-30,69,56,46,61,48,33,98,77,57,30.20,29.88,11,2,14,0.39
2012-5-1,66,59,53,60,54,51,98,86,71,30.06,29.90,12,4,15,0.06
2012-5-2,82,67,53,70,62,52,100,86,62,29.96,29.84,19,4,32,0.04
2012-5-3,86,75,63,68,64,61,99,72,46,29.98,29.83,22,6,31,0.00
2012-5-4,80,70,61,70,64,56,96,81,60,29.95,29.83,20,3,25,0.23
2012-5-5,68,62,57,62,57,54,96,85,69,30.06,29.89,12,3,19,0.00
2012-5-6,73,60,50,54,45,32,93,61,35,30.09,29.94,11,3,17,0.00
2012-5-7,70,60,49,64,54,34,98,81,43,29.95,29.76,15,4,19,0.78
2012-5-8,70,60,52,59,52,45,96,77,45,29.84,29.76,18,6,23,0.01
2012-5-9,64,56,49,51,47,42,92,72,53,29.87,29.77,22,7,27,0.04
2012-5-10,65,52,40,42,37,31,92,60,30,30.03,29.87,16,4,19,0.00
2012-5-11,73,59,41,46,40,33,91,53,23,30.18,30.03,14,2,17,0.00
2012-5-12,74,63,53,58,49,38,93,61,39,30.22,30.13,13,3,18,0.00
2012-5-13,71,62,56,58,54,51,99,78,55,30.18,30.07,14,3,17,0.00
2012-5-14,76,63,50,56,51,43,97,68,35,30.09,29.96,9,2,11,0.00
2012-5-15,81,67,46,51,45,40,91,50,24,29.99,29.82,17,4,20,0.00
2012-5-16,68,61,53,54,40,32,85,47,29,30.07,29.83,17,6,23,0.00
2012-5-22,70,63,54,51,49,47,83,60,43,29.92,29.89,8,2,10,0.00
2012-5-23,80,65,47,58,53,46,97,67,41,29.95,29.79,9,2,15,0.00
2012-5-24,85,73,56,64,58,54,94,63,38,29.89,29.71,19,4,24,0.00
2012-5-25,87,77,65,68,59,50,71,55,33,30.06,29.78,15,6,24,0.00
2012-5-26,84,71,63,62,55,50,76,57,41,30.18,30.05,16,4,20,0.02
2012-5-27,94,76,62,69,63,58,89,65,37,30.09,29.89,13,2,19,0.00
2012-5-28,92,80,64,70,64,61,93,62,37,29.89,29.70,18,5,27,0.00
2012-5-29,84,78,69,68,57,45,85,52,27,29.79,29.66,21,6,25,0.00
2012-5-30,74,64,50,51,47,44,88,56,37,29.88,29.77,18,5,20,0.00
2012-5-31,65,56,49,54,49,45,92,77,62,29.97,29.80,13,5,21,0.12
2012-6-1,54,52,48,52,50,44,98,92,82,29.80,29.58,19,9,25,0.04
2012-6-2,72,59,46,51,46,40,92,64,32,29.78,29.69,30,9,34,0.01
2012-6-3,78,66,54,56,49,43,90,59,30,29.78,29.74,23,9,28,0.00
2012-6-4,73,65,56,54,49,45,78,57,41,29.87,29.74,16,6,17,0.00
2012-6-5,67,59,51,53,49,44,91,70,45,30.00,29.87,17,5,19,0.00
2012-6-6,76,62,48,54,48,44,95,64,34,30.07,29.98,11,2,17,0.00
2012-6-7,80,68,52,55,51,47,91,57,32,30.08,29.99,18,4,24,0.00
2012-6-8,84,70,54,54,47,42,76,48,25,30.07,29.90,13,3,17,0.00
2012-6-9,88,76,61,55,52,47,73,45,29,29.96,29.85,19,5,25,0.00
2012-6-10,90,77,56,62,56,52,86,51,30,30.00,29.90,13,2,16,0.00
2012-6-11,82,74,68,72,65,56,97,76,51,29.92,29.79,11,2,16,0.07
2012-6-12,76,70,59,69,56,45,93,63,35,30.06,29.78,23,8,26,0.00
2012-6-13,74,63,51,49,44,38,80,52,29,30.19,30.06,13,4,17,0.00
2012-6-14,82,66,51,55,49,44,87,58,29,30.20,30.07,13,3,19,0.00
2012-6-15,87,73,56,60,54,48,92,57,26,30.14,30.05,13,2,16,0.00
2012-6-16,91,77,61,68,63,59,92,64,37,30.13,29.90,14,3,24,0.00
2012-6-17,82,74,63,70,65,57,95,73,49,29.90,29.78,15,4,20,0.07
2012-6-18,92,77,58,72,64,55,94,67,44,29.85,29.72,22,4,32,0.00
2012-6-19,94,83,71,69,65,63,78,56,39,29.99,29.86,18,5,23,0.00
2012-6-20,93,83,69,67,62,58,81,52,32,30.06,29.89,21,5,25,0.00
2012-6-21,91,78,66,71,65,62,88,64,41,29.93,29.76,22,6,30,0.34
2012-6-22,83,72,61,64,58,47,97,66,29,29.94,29.87,14,3,18,0.00
2012-6-23,84,72,57,60,55,50,92,60,33,30.01,29.94,16,2,17,0.00
2012-6-24,88,77,64,62,59,54,90,57,34,29.99,29.84,14,4,18,0.00
2012-6-25,76,69,57,62,52,42,84,57,32,30.00,29.86,19,7,24,0.00
2012-6-26,81,66,50,54,47,42,91,55,28,30.07,29.92,14,2,15,0.00
2012-6-27,89,73,54,53,49,46,85,48,23,30.02,29.81,14,4,20,0.00
2012-6-28,103,85,67,76,65,51,70,52,36,29.83,29.64,19,6,25,0.00
2012-6-29,90,78,66,75,66,58,95,71,35,29.89,29.63,22,4,24,0.06
2012-6-30,90,78,65,71,67,64,97,72,47,29.84,29.72,14,5,22,0.04
2012-7-1,93,76,64,72,66,61,96,75,40,29.97,29.82,26,3,42,0.16
2012-7-2,94,79,63,72,67,62,98,70,39,29.99,29.86,8,1,12,0.00
2012-7-3,97,85,71,72,66,60,95,59,30,29.90,29.76,17,5,21,0.00
2012-7-4,99,87,76,74,70,65,81,60,38,29.84,29.75,18,5,21,0.00
2012-7-5,98,84,76,74,71,67,81,65,38,29.90,29.80,24,4,29,0.04
2012-7-6,103,88,72,77,72,68,89,63,35,29.92,29.82,12,2,15,0.00
2012-7-7,100,89,78,76,72,68,86,59,37,29.88,29.80,19,6,24,0.00
2012-7-8,83,76,69,72,63,53,84,64,36,29.99,29.88,14,5,19,0.00
2012-7-9,86,74,60,65,62,59,98,69,40,30.02,29.91,10,1,13,0.00
2012-7-10,84,73,63,66,60,54,96,67,38,30.07,29.96,14,3,16,0.00
2012-7-11,84,74,61,58,52,45,91,51,28,30.13,30.05,14,3,21,0.00
2012-7-12,88,74,56,64,58,50,90,58,35,30.11,30.01,11,2,17,0.00
2012-7-13,88,78,64,68,63,59,92,62,38,30.08,29.98,15,3,21,0.00
2012-7-14,90,76,63,70,65,60,96,71,42,30.07,29.94,8,2,15,0.00
2012-7-15,92,80,71,71,68,61,95,68,41,30.03,29.89,18,5,22,0.00
2012-7-16,97,83,67,68,64,60,86,56,30,29.97,29.80,13,4,18,0.00
2012-7-17,98,86,74,72,69,66,87,59,38,29.83,29.72,19,6,28,0.02
2012-7-18,88,79,73,74,72,69,96,79,61,29.92,29.78,13,3,17,0.22
2012-7-19,82,73,69,74,71,68,98,92,73,29.92,29.81,11,2,16,0.70
2012-7-20,79,70,62,68,61,56,96,74,46,30.02,29.87,18,6,23,0.05
2012-7-21,84,72,57,67,61,56,99,71,45,30.09,30.00,11,2,14,0.00
2012-7-22,90,79,66,71,67,64,94,69,45,30.08,29.98,15,4,19,0.00
2012-7-23,94,82,72,76,71,68,92,71,52,30.02,29.80,19,6,25,0.09
2012-7-24,83,78,70,74,70,63,96,77,52,29.92,29.79,16,4,23,0.04
2012-7-25,89,76,61,78,67,59,96,75,53,29.94,29.59,11,3,20,0.00
2012-7-26,85,80,74,77,72,68,88,75,59,29.69,29.55,21,6,29,0.00
2012-7-27,87,74,65,70,67,63,99,82,47,29.86,29.66,16,3,22,0.06
2012-7-28,80,71,64,65,63,60,97,78,54,30.04,29.86,14,5,18,0.00
2012-7-29,85,73,58,65,58,52,95,64,33,30.09,29.96,9,2,14,0.00
2012-7-30,87,77,65,67,63,59,87,65,41,29.99,29.86,11,2,15,0.00
2012-7-31,86,76,65,70,65,62,92,70,51,29.92,29.79,19,4,29,0.03
2012-8-1,85,74,63,66,60,51,94,66,33,29.90,29.83,11,3,15,0.00
2012-8-2,79,61,59,59,56,56,91,85,49,29.87,29.83,2,0,2,0.00
2012-8-3,94,83,65,68,63,59,86,54,33,29.90,29.83,15,3,17,0.00
2012-8-4,87,75,67,75,70,65,96,83,67,29.93,29.86,15,2,15,0.00
2012-8-5,82,76,70,72,64,56,98,70,49,30.02,29.82,22,8,24,0.09
2012-8-6,71,71,71,56,56,56,60,60,59,30.14,30.14,4,4,5,0.00
2012-8-7,86,73,54,65,61,53,99,69,42,30.00,29.88,13,2,19,0.00
2012-8-8,87,76,65,70,65,58,94,70,47,29.92,29.86,13,2,13,0.00
2012-8-9,74,68,64,66,64,57,97,89,58,29.90,29.72,12,3,13,0.74
2012-8-10,64,61,57,63,59,56,98,93,82,29.78,29.67,25,9,25,0.13
2012-8-11,74,64,58,62,59,56,94,84,58,29.94,29.77,25,8,25,0.02
2012-8-12,77,66,56,61,58,52,95,77,46,30.01,29.93,15,3,15,0.00
2012-8-13,71,65,58,63,61,57,97,86,69,29.98,29.90,7,1,9,0.02
2012-8-14,75,66,60,64,61,58,98,86,57,29.90,29.85,11,3,15,0.05
2012-8-15,80,69,58,66,62,57,97,81,56,29.95,29.89,12,2,16,0.01
2012-8-16,78,68,62,68,64,61,99,86,63,29.93,29.75,13,3,22,0.04
2012-8-17,75,67,57,64,58,52,98,76,49,29.96,29.82,15,5,18,0.00
2012-8-18,76,62,49,53,49,42,96,67,31,30.02,29.90,8,1,11,0.00
2012-8-19,76,64,53,56,50,43,90,64,36,29.95,29.86,10,2,12,0.00
2012-8-20,77,62,50,57,54,49,98,76,42,29.97,29.89,15,2,20,0.00
2012-8-21,78,65,53,59,54,48,99,71,38,30.07,29.96,10,2,13,0.00
2012-8-22,80,66,49,59,53,48,98,68,36,30.14,30.04,10,2,14,0.00
2012-8-23,85,69,52,62,56,51,97,66,34,30.13,30.03,9,1,14,0.00
2012-8-24,78,62,56,64,58,54,97,87,59,30.09,30.03,5,0,8,0.00
2012-8-25,91,75,59,66,61,56,97,66,32,30.08,30.00,11,2,16,0.00
2012-8-26,88,76,61,70,64,59,94,70,46,30.09,29.95,12,2,23,0.00
2012-8-27,83,73,68,72,68,60,99,85,56,29.99,29.91,13,4,17,0.97
2012-8-28,80,70,60,63,60,57,93,71,52,30.08,29.99,13,4,18,0.04
2012-8-29,79,68,58,65,59,56,97,75,48,30.09,29.99,8,1,9,0.00
2012-8-30,84,70,54,63,59,53,99,71,40,30.10,29.98,12,2,18,0.00
2012-8-31,90,75,59,74,66,56,94,76,55,30.06,29.98,17,4,22,0.00
2012-9-1,75,72,70,71,69,66,98,90,78,30.07,30.03,8,1,9,0.00
2012-9-2,73,71,70,70,69,68,93,93,91,29.91,29.89,6,2,9,0.05
2012-9-3,86,74,67,75,69,66,96,85,64,29.91,29.83,9,3,14,0.00
2012-9-4,84,73,68,74,69,66,100,91,56,29.88,29.80,9,2,16,0.00
2012-9-5,78,70,64,72,68,63,100,93,79,29.87,29.75,17,2,26,0.20
2012-9-6,70,66,64,68,65,63,100,98,94,29.88,29.80,4,0,8,0.01
2012-9-7,80,68,57,67,63,56,99,84,55,29.89,29.67,8,2,18,0.14
2012-9-8,70,62,53,66,54,49,98,77,48,29.86,29.65,18,8,22,0.36
2012-9-9,70,60,51,56,53,50,97,79,52,30.08,29.84,10,2,12,0.00
2012-9-10,75,60,50,53,48,43,92,69,34,30.23,30.08,7,1,10,0.00
2012-9-11,78,63,47,57,52,46,98,71,44,30.23,30.12,13,2,20,0.00
2012-9-12,82,67,50,62,56,49,98,70,45,30.23,30.13,12,2,19,0.00
2012-9-13,82,70,60,63,58,53,91,68,39,30.23,30.13,14,3,20,0.00
2012-9-14,70,60,52,59,52,45,96,78,40,30.28,30.17,14,6,18,0.26
2012-9-15,72,59,46,52,47,43,94,69,38,30.33,30.15,8,1,12,0.00
2012-9-16,76,60,45,54,48,44,99,70,35,30.15,30.00,11,2,16,0.00
2012-9-17,76,58,47,59,51,46,98,79,48,30.02,29.80,8,1,16,0.00
2012-9-18,65,58,45,64,50,36,97,77,46,29.99,29.59,22,8,28,0.02
2012-9-19,67,54,39,44,39,36,96,61,32,30.13,29.99,13,4,19,0.00
2012-9-20,70,59,48,54,47,40,89,64,48,29.99,29.84,13,4,18,0.04
2012-9-21,71,55,44,51,44,38,96,71,30,29.95,29.78,18,3,21,0.04
2012-9-22,54,50,47,51,49,43,98,95,78,29.89,29.75,18,4,18,0.05
2012-9-23,55,48,40,46,42,37,98,82,60,30.25,30.12,13,4,25,0.00
2012-9-24,40,39,39,38,37,37,94,93,93,30.25,30.24,0,0,0,0.00
2012-9-25,67,59,44,60,52,39,94,80,56,29.99,29.87,11,3,15,0.00
2012-9-26,74,65,59,65,61,57,99,89,68,30.08,29.87,14,2,15,0.01
2012-9-27,66,58,51,57,50,45,96,76,64,30.18,30.08,11,3,16,0.00
2012-9-28,67,55,48,54,49,46,95,81,53,30.16,30.06,10,1,13,0.00
2012-9-29,71,57,44,51,46,42,98,71,37,30.09,29.92,13,3,16,0.00
2012-9-30,65,54,45,50,45,42,94,73,44,29.95,29.89,16,4,17,0.00
2012-10-1,65,53,40,52,46,39,99,77,53,29.95,29.81,11,2,16,0.01
2012-10-2,64,57,52,59,54,50,97,90,80,29.88,29.78,13,4,16,0.13
2012-10-3,63,60,56,59,57,52,99,90,77,30.06,29.88,14,2,18,0.03
2012-10-4,76,64,52,57,54,50,92,71,44,30.12,30.00,19,4,26,0.00
2012-10-5,67,52,42,59,48,39,94,85,70,30.08,30.00,13,6,20,0.41
2012-10-6,48,42,35,40,36,33,95,81,61,30.17,30.00,16,6,23,0.01
2012-10-7,51,43,38,40,38,34,95,82,54,30.19,30.10,17,4,22,0.01
2012-10-8,54,41,29,37,31,28,98,73,39,30.26,30.12,10,2,20,0.01
2012-10-9,61,48,35,41,36,31,92,66,41,30.16,29.88,14,4,24,0.00
2012-10-10,51,50,48,45,42,41,86,74,72,29.88,29.84,14,6,22,0.00
2012-10-11,60,46,30,38,32,28,91,63,35,30.25,30.09,14,5,14,0.00
2012-10-12,53,46,36,41,29,23,87,55,32,30.45,30.17,11,4,12,0.00
2012-10-13,63,48,34,61,43,29,96,83,63,30.39,29.92,8,3,18,0.11
2012-10-14,72,65,53,63,60,49,95,84,64,29.91,29.47,25,9,38,0.08
2012-10-15,53,49,44,49,46,38,96,88,70,29.97,29.62,17,9,25,0.06
2012-10-16,61,47,31,44,39,30,98,76,51,30.02,29.74,8,3,17,0.00
2012-10-17,74,60,54,56,49,44,95,68,41,29.75,29.48,16,6,31,0.42
2012-10-18,60,54,47,55,44,36,95,69,43,29.65,29.34,18,8,31,0.40
2012-10-19,52,46,43,45,43,40,96,88,75,29.62,29.54,10,4,21,0.18
2012-10-20,54,48,45,46,44,43,95,87,71,29.94,29.61,14,6,23,0.00
2012-10-21,62,50,39,48,44,37,97,79,54,30.12,29.94,9,3,16,0.00
2012-10-22,72,56,43,60,51,42,99,84,58,30.09,29.94,7,2,13,0.01
2012-10-23,66,63,59,62,58,55,94,85,74,30.00,29.90,10,3,18,0.00
2012-10-24,78,66,59,63,59,55,96,78,59,30.01,29.93,8,3,16,0.01
2012-10-25,76,66,53,62,56,51,92,71,50,29.97,29.82,13,5,25,0.00
2012-10-26,67,48,42,57,41,35,92,77,61,30.23,29.82,17,8,24,0.03
2012-10-27,53,44,37,36,33,30,84,67,43,30.25,30.14,12,8,19,0.00
2012-10-28,48,42,36,36,32,29,82,69,53,30.22,30.13,17,10,25,0.00
2012-10-29,44,40,36,31,27,21,74,61,42,30.15,29.78,24,16,35,0.00
2012-10-30,41,38,35,36,33,25,94,84,53,29.78,29.53,26,18,39,0.35
2012-10-31,42,39,37,38,36,34,94,90,83,29.76,29.61,15,11,23,0.01
2012-11-1,50,42,36,37,32,25,88,69,38,29.86,29.75,18,11,25,0.00
2012-11-2,44,40,34,33,31,28,84,69,57,30.12,29.85,15,6,20,0.00
2012-11-3,44,37,29,33,30,26,93,79,63,30.24,30.12,7,4,13,0.00
2012-11-4,38,33,26,30,28,23,92,80,67,30.25,30.20,8,3,12,0.00
2012-11-5,42,32,22,30,26,20,94,78,58,30.27,30.19,7,2,13,0.00
2012-11-6,43,33,22,31,27,20,96,80,60,30.19,29.99,9,2,15,0.01
2012-11-7,48,37,30,35,31,27,93,80,54,30.19,29.99,8,3,15,0.00
2012-11-8,50,37,24,36,31,23,97,81,55,30.27,30.18,7,1,11,0.00
2012-11-9,57,43,26,46,37,25,98,81,58,30.24,30.09,9,3,17,0.03
2012-11-10,66,57,48,52,48,44,91,72,57,30.14,30.02,10,4,18,0.00
2012-11-11,68,58,48,51,45,40,80,62,48,30.14,29.94,16,8,29,0.00
2012-11-12,61,42,32,53,36,23,96,81,58,30.32,29.92,16,9,29,0.44
2012-11-13,36,32,23,27,23,20,90,70,56,30.58,30.32,13,4,20,0.00
2012-11-14,39,30,21,29,25,19,95,81,62,30.63,30.47,10,1,14,0.00
2012-11-15,46,33,23,34,28,22,96,84,62,30.48,30.38,6,1,8,0.01
2012-11-16,52,36,24,35,27,22,96,75,41,30.55,30.42,5,0,8,0.00
2012-11-17,52,38,25,34,30,23,95,75,48,30.64,30.55,11,2,12,0.00
2012-11-18,52,39,30,41,34,29,99,84,54,30.56,30.44,10,1,10,0.01
2012-11-19,52,41,30,38,34,29,97,78,55,30.44,30.20,5,1,8,0.00
2012-11-20,57,47,40,43,39,36,91,75,53,30.20,30.09,7,1,10,0.00
2012-11-21,57,43,32,47,39,31,99,87,65,30.28,30.16,8,1,13,0.00
2012-11-22,61,48,35,48,42,34,99,80,54,30.21,29.86,17,4,22,0.02
2012-11-23,54,38,31,50,32,24,93,79,68,30.11,29.80,31,13,35,0.08
2012-11-24,33,30,28,26,24,21,84,77,69,30.21,30.10,18,8,25,0.00
2012-11-25,41,32,27,29,25,21,87,76,61,30.13,29.90,16,4,19,0.00
2012-11-26,31,27,22,28,25,20,96,91,84,30.22,30.06,2,0,4,0.00
2012-11-27,36,29,21,24,20,17,86,71,54,30.43,30.32,13,2,16,0.00
2012-11-28,41,31,25,28,23,19,82,71,56,30.40,30.29,15,5,24,0.00
2012-11-29,47,36,27,31,27,23,85,72,51,30.38,30.23,22,3,22,0.00
2012-11-30,49,41,35,37,33,29,95,73,57,30.24,30.14,9,2,11,0.00
2012-12-1,58,46,37,51,43,36,99,88,74,30.26,30.04,16,4,20,0.01
2012-12-2,58,55,53,55,52,48,97,89,77,30.10,29.95,13,4,19,0.04
2012-12-3,62,57,51,61,56,50,100,96,87,30.12,29.95,13,4,19,0.00
2012-12-4,60,51,40,56,46,34,95,84,72,30.17,29.93,21,6,23,0.10
2012-12-5,40,33,25,35,25,21,87,75,59,30.45,30.17,17,5,20,0.00
2012-12-6,37,31,24,33,27,21,91,85,80,30.37,30.01,7,2,10,0.00
2012-12-7,44,40,36,43,39,33,98,94,87,30.02,29.87,5,1,9,0.13
2012-12-8,43,39,33,42,38,31,99,96,90,30.17,29.83,10,3,13,0.05
2012-12-9,40,36,34,40,35,31,99,95,90,30.18,29.68,15,4,20,0.16
2012-12-10,42,36,32,42,34,27,99,92,81,29.92,29.67,16,7,22,0.01
2012-12-11,33,30,26,29,25,22,93,83,69,30.24,29.91,17,5,22,0.00
2012-12-12,42,30,23,29,25,21,93,81,54,30.43,30.24,11,2,15,0.00
2012-12-13,43,33,24,31,27,22,93,78,57,30.43,30.23,13,3,16,0.00
2012-12-14,47,35,24,34,29,22,94,79,59,30.31,30.19,7,1,10,0.00
2012-12-15,48,39,32,46,36,29,96,90,76,30.19,29.71,13,4,18,0.08
2012-12-16,52,49,40,50,46,38,98,92,83,29.73,29.61,15,6,22,0.25
2012-12-17,41,39,34,37,36,33,96,88,83,29.77,29.64,10,3,15,0.10
2012-12-18,39,36,31,35,33,29,97,89,78,29.85,29.68,14,5,19,0.02
2012-12-19,41,37,35,37,35,33,96,91,80,30.14,29.75,10,2,14,0.00
2012-12-20,50,40,32,48,38,30,99,92,81,30.05,29.17,28,9,33,0.63
2012-12-21,35,34,32,34,30,25,97,85,71,30.00,29.18,35,17,45,0.01
2012-12-22,34,30,22,27,24,20,91,79,70,30.18,30.00,26,10,32,0.00
2012-12-23,36,26,18,29,22,16,95,85,65,30.08,29.95,13,2,13,0.00
2012-12-24,33,28,22,30,26,20,96,91,84,30.06,29.83,9,2,13,0.00
2012-12-25,34,29,23,27,25,21,94,84,74,30.32,30.06,12,5,15,0.01
2012-12-26,30,28,26,27,25,23,96,87,79,30.25,29.82,25,13,40,0.01
2012-12-27,31,26,23,25,23,20,89,85,78,30.21,29.95,16,6,22,0.00
2012-12-28,30,26,21,27,24,20,96,91,88,30.23,29.94,10,2,13,0.01
2012-12-29,29,27,24,27,25,23,96,94,90,30.15,29.85,9,4,12,0.00
2012-12-30,28,22,18,26,18,15,94,87,76,30.41,30.15,16,6,24,0.00
2012-12-31,34,29,20,30,25,17,94,86,72,30.28,30.02,20,7,31,0.02
2013-1-1,30,25,18,27,18,13,88,75,64,30.19,30.07,11,4,15,0.00